Voltar ao catálogo

SL-6 R/B(2)

AtivoHEO
NORAD 20333·ROCKET BODY·🇷🇺 Russia

Lançado Nov 23, 1989 de Plesetsk Cosmodrome

Loading…

Próximas Passagens (próximas 24 horas)

TLE

AtualizadoSource: Space-Track

Época: Sep 14, 2026, 08:34 UTC

1 20333U 89091D   26257.35738922  .00000158  00000-0  00000-0 0  9993
2 20333  69.4902 129.8620 5433285  46.1522  77.0356  2.04210302247534

Acompanhe SL-6 R/B(2) em tempo real com AllMySat

Download on the App Store